Showing default

LAPAN A3, 41603

Orbit data source: Space-Track

LAPAN A3, 41603 is a payload satellite owned by LAPAN (ID) in SSO that was launched on Wed, 22 Jun 2016 UTC via a PSLV-XL launch vehicle from the Sirharikota (SRI). Payloads include a variety of satellites, spacecraft, and rockets equipped with specific instruments for various scientific and technological missions. These include communications satellites like Starlink; space stations such as the ISS; scientific satellites like the Hubble; Earth observation satellites from companies like Planet Labs, Umbra, and HawkEye 360; GPS; miniature CubeSats for education and research; and military/defense satellites.

Loading next visibility...
LAPAN A3 details
Identifier
41603, 2016-040E
Orbit
SSO
Last TLE update8 hours ago
Origin
Flag of IDLAPAN (ID / INDO)
ManufacturerLAPAN
MissionOperational Civil Imaging
Bus & MotorTUBSAT, Unknown motor
Mass120 kg wet, 120 kg dry
Launch date (UTC)
2016-06-22 (9 years ago)
Launch vehicle
PSLV-XL
Launch site
Sirharikota (SRI)
Object type
Payload
Rocket body
Debris
Shape & HBRBox, 0.5 m
Radar Cross Section0.225 m², Medium (>0.1 m² and < 1m²)

Expand to show TLE details & history

TLE from 8 hours ago
0 LAPAN A3
1 41603U 16040E   24361.11534728  .00006382  00000-0  23676-3 0  9998
2 41603  97.1389   6.4307 0012821 132.6163 227.6161 15.27849861472503
Epoch: 2024-12-26T02:46Z
Definitive object data (Epoch: 2024-12-26T02:46:06.005Z)
Latitude0.00005°
Longitude-130.1937°
Altitude491.286 km
Speed7.616 km/s
True Right ascension00h 25m 43s
True Declination0° 00' 00"
Sunlit
Object was in daylight at TLE epoch
Visualization TLE readout
Latitude-50.64616°
Longitude-121.15262°
Altitude510.739 km
Speed7.602 km/s
Apparent Right ascension23h 17m 45s
Apparent Declination-48° 00' 23"
Sunlit
Object is in daylight
Visualization observer readout
Local Sidereal Time09:45:25
Azimuth236.275° WSW
Elevation-71.616°
Doppler factor1
Orbital elements
Apogee altitude487.977 km
Perigee altitude470.393 km
Semi-major axis6,857.322 km
Eccentricity0.0012821
Inclination97.1389°
RAAN6.4307°
Arg. of periapsis132.6163°
True anomaly227.5077°
Mean anomaly227.6161°
Eccentric anomaly227.56189°
Mean motion3.82218 °/min
BSTAR0.00023676
Orbital period94.19 mins
Loading maneuver chart data...
Loading historical data...
Loading historical data...
Loading historical data...
Loading historical data...
Loading historical data...
Loading historical data...
Loading historical data...

LAPAN A3 Visibility forecast

Observer location: undefined°, undefined

Span
Click to sort rows by Start time (UTC) header in descending order
Start Az.
Max El. time (UTC)
Max El. Az.
Max El.
End time (UTC)
End Az.
5 mins2024-12-26 12:46:14.968Z43.257° NE2024-12-26 12:49:14.968Z107.755° ESE21.513°2024-12-26 12:51:14.968Z146.487° SSE
5 mins2024-12-27 00:55:14.968Z195.131° SSW2024-12-27 00:57:14.968Z289.066° WNW37.542°2024-12-27 01:00:14.968Z338.685° N
|